www.pogodaiklimat.ru

Погода и климат >> Архив погоды >> Марокко >> Касабланка


АРХИВ ПОГОДЫ в Касабланке

Время (UTC), дата Ветер
(напр.,м/с)
 
Видим.   Явления Облачность Т
(С)
Тd
(С)
f
(%)
Тe
(С)
Тes
(С)
Комфортность P
(гПа)
Po
(гПа)
Тmin
(С)
Tmax
(С)
R
(мм)
R24
(мм)
S
(см)
06 13.07 Ю 4-8
{8}
10 км 4/4 480 м
[Cu med, cong]
+20.1 +17.5 85 +23 +23 комфорт 1017.5 1010.8 +19.8
09 13.07 СЗ 8-14
{14}
10 км 4/4 480 м
[Cu med, cong]
+23.6 +17.2 67 +27 +28 жарко 1017.9 1011.2
12 13.07 С 12-21
{21}
10 км 1/1 480 м
[Cu hum]
+25.3 +17.5 62 +29 +29 душно 1017.9 1011.2
15 13.07 СЗ 11-21
{21}
10 км 4/4 480 м
[Cu med, cong]
+24.7 +17.8 65 +29 +29 душно 1017.2 1010.4
18 13.07 С 8-16
{23}
10 км 8/8 480 м
[Cu med, cong]
+23.6 +17.4 68 +27 +28 жарко 1017.2 1010.5 +25.7
06 14.07 СВ 3-4
{8}
6000 м 8/8 480 м
[Cu med, cong]
+21.0 +16.4 75 +25 +25 комфорт 1016.5 1009.8 +20.8
09 14.07 СВ 10-11
{19}
10 км 1/1 480 м
[Cu hum]
+23.6 +16.9 66 +27 +28 жарко 1017.3 1010.6
12 14.07 СВ 16-17
{21}
10 км ясно +24.3 +16.9 63 +28 +28 душно 1017.4 1010.7
15 14.07 СВ 14-15
{27}
10 км ясно +24.6 +18.1 67 +29 +29 душно 1016.2 1009.5
18 14.07 С 17-18
{21}
10 км 6/6 480 м
[Cu med, cong]
+23.0 +18.3 75 +29 +29 очень
душно
1016.1 1009.4 +25.3
06 15.07 С 8-16
{16}
10 км 10/10 480 м
[Cu med, cong]
+20.7 +16.7 78 +24 +24 комфорт 1015.9 1009.1 +20.7
09 15.07 С 12-16
{16}
10 км 10/10 480 м
[Cu med, cong]
+21.5 +16.7 74 +25 +25 комфорт 1016.7 1010.0
12 15.07 С 14-19
{19}
10 км 8/8 480 м
[Cu med, cong]
+23.9 +17.6 68 +28 +28 душно 1016.3 1009.6
15 15.07 С 16-27
{27}
10 км 6/6 480 м
[Cu med, cong]
+23.6 +17.0 66 +27 +27 жарко 1015.3 1008.6
18 15.07 С 12-23
{27}
10 км 10/10 480 м
[Cu med, cong]
+22.1 +16.8 72 +26 +26 душно 1015.4 1008.7 +24.2
06 16.07 С 10-12
{14}
10 км 10/10 480 м
[Cu Sc]
+20.2 +16.1 77 +22 +22 комфорт 1015.4 1008.7 +20.1
09 16.07 СВ 8-10
{10}
10 км 10/10 480 м
[Cu Sc]
+21.2 +16.1 73 +25 +25 комфорт 1016.1 1009.2
12 16.07 С 12-21
{21}
10 км 8/8 480 м
[Cu Sc]
+23.3 +16.2 64 +28 +28 душно 1016.4 1009.6
15 16.07 С 18-27
{27}
10 км 6/6 480 м
[Cu med, cong]
+23.2 +16.5 66 +28 +28 душно 1015.6 1008.8
18 16.07 С 14-21
{27}
10 км 10/10 480 м
[Cu Sc]
+21.6 +16.4 72 +25 +25 комфорт 1016.0 1009.3 +24.1
06 17.07 С 6-10
{12}
10 км 10/10 480 м
[Cu Sc]
+20.3 +14.7 70 +23 +23 комфорт 1017.4 1010.7 +20.3
09 17.07 С 10-16
{16}
10 км 10/10 480 м
[Cu Sc]
+21.9 +14.6 63 +25 +25 комфорт 1018.8 1012.1
12 17.07 С 10-21
{21}
10 км 8/8 480 м
[Cu Sc]
+23.7 +14.9 58 +27 +27 жарко 1018.9 1012.2
15 17.07 С 16-23
{23}
10 км 4/4 480 м
[Cu med, cong]
+23.8 +15.4 59 +27 +27 жарко 1018.0 1011.3
18 17.07 С 10-21
{23}
10 км 6/3 480 м
[Sc]
+21.9 +13.8 60 +25 +25 комфорт 1017.4 1010.7 +24.7
06 18.07 С 5-6
{6}
8000 м 9/3 480 м
[Frnb]
+20.0 +13.5 66 +22 +22 комфорт 1015.9 1009.2 +20.0
09 18.07 СВ 10-16
{16}
10 км 4/4 480 м
[Cu med, cong]
+22.5 +14.4 60 +26 +26 жарко 1016.0 1009.3
12 18.07 С 12-21
{21}
10 км ясно +23.4 +15.2 60 +28 +28 душно 1015.2 1008.5
15 18.07 С 17-23
{25}
10 км 6/6 480 м
[Cu med, cong]
+23.3 +16.6 66 +28 +28 душно 1013.7 1006.9
18 18.07 С 10-18
{20}
10 км 9/9 480 м
[Cu med, cong]
+22.0 +17.1 74 +26 +26 душно 1013.3 1006.6 +24.4
06 19.07 С 5-10
{11}
10 км 8/4 480 м
[Cu med, cong Ci sp]
+20.6 +17.8 84 +24 +24 комфорт 1011.8 1005.0 +20.6
09 19.07 С 8-12
{12}
10 км 6/6 480 м
[Cu med, cong]
+23.0 +18.2 74 +29 +29 очень
душно
1011.9 1005.2
12 19.07 З 11-21
{21}
10 км 9/9 480 м
[Cu med, cong]
+24.4 +19.1 72 +29 +29 душно 1011.9 1005.2
15 19.07 З 12-17
{23}
10 км 10/10 480 м
[Cu Sc]
+25.0 +19.5 72 +30 +30 душно 1011.3 1004.6
18 19.07 СЗ 5-16
{23}
10 км 10/10 480 м
[Cu Sc]
+23.6 +19.7 79 +29 +29 душно 1011.5 1004.7 +25.1

 

Местоположение метеостанции Касабланка (Марокко): широта 33.57 долгота -7.67 высота над уровнем моря 57 м.

В архиве по умолчанию представлена погода в Касабланке за последнюю неделю. Архивные данные за месяц целиком и за предыдущие месяцы, начиная с января 2011 года, Вы можете получить, выбрав интересующий диапазон дат из раскрывающегося списка и нажав кнопку "Ввод!".


*Определитесь, кто Вы:
робот инопланетянин человек

Внимание! Время в таблицах - всемирное. Для получения местного времени необходимо прибавить поправку, которая равна 0 ч.

Смотрите также архив погоды в соседних городах и на ближайших метеорологических станциях:

Погода в Нуасере (Марокко) (24 км)
Погода в Мохаммедии (Марокко) (30 км)
Погода в Сеттате (Марокко) (69 км)
Погода в Рабате (Марокко) (99 км)
Погода в Хурибге (Марокко) (102 км)
Погода в Кенитре (Марокко) (128 км)
Погода в Касба-Тадле (Марокко) (174 км)
Погода в Бени-Меллале (Марокко) (178 км)
Погода в Мекнесе (Марокко) (201 км)
Погода в Сафи (Марокко) (204 км)

Пояснения к столбцам:

Ветер - указаны скорость ветра в м/с - средняя за 10 мин, порывы в срок и между сроками (в фигурных скобках) и направление, откуда дует ветер: С - северный, СВ - северо-восточный, В - восточный, ЮВ - юго-восточный, Ю - южный, ЮЗ - юго-западный, З - западный, СЗ - северо-западный.
Видимость - горизонтальная дальность видимости в метрах или километрах. При видимости от 1 до 10 км при отсутствии осадков обычно наблюдается дымка, при ухудшении видимости до 1 км и менее - туман. В сухую погоду видимость может ухудшаться дымом, пылью или мглою.
Явления - указаны атмосферные явления, наблюдавшиеся в срок или в последний час перед сроком; фигурными скобками обозначены явления, наблюдавшиеся между сроками (за 1-3 часа до срока); квадратными скобками обозначены град или гололедные отложения с указанием их диаметра в мм.
Облачность - указаны через наклонную черту общая и нижняя облачность в баллах и высота нижней границы облаков в метрах; квадратными скобками обозначены формы облаков: Ci - перистые, Cs - перисто-слоистые, Cc - перисто-кучевые, Ac - высококучевые, As - высокослоистые, Sc - слоисто-кучевые, Ns - слоисто-дождевые, Cu - кучевые, Cb - кучево-дождевые. Подробнее классификацию облаков см. в Атласе облаков (PDF).
T - Температура воздуха - температура, измеренная на высоте 2 м над землей.
Td - Температура точки росы - температура, при понижении до которой содержащийся в воздухе водяной пар достигнет насыщения.
f - Относительная влажность воздуха - влажноcть воздуха, измеренная на высоте 2 м над землей.
Te - Эффективная температура - температура, которую ощущает одетый по сезону человек в тени. Характеристика душности погоды. При расчете учитывается влияние влажности воздуха и скорости ветра на теплоощущения человека.
Tes - Эффективная температура на солнце - температура, которую ощущает человек, с поправкой на солнечный нагрев. Характеристика знойности погоды. Зависит от высоты солнца над горизонтом, облачности и скорости ветра. Ночью, в пасмурную погоду, а также при ветре 12 м/с и более поправка равна нулю.
P - Атмосферное давление - приведенное к уровню моря атмосферное давление.
Po - Атмосферное давление - измеренное на уровне метеостанции атмосферное давление.
Tmin - Минимальная температура - минимум температуры воздуха на высоте 2 м над землей.
Tmax - Максимальная температура - максимум температуры воздуха на высоте 2 м над землей.
R - Количество осадков - Количество выпавших осадков за период времени, мм. При наведении курсора мыши на число - период времени, за который выпало указанное количество осадков.
R24 - Количество осадков - Количество выпавших осадков за 24 часа, мм.
S - Снежный покров - Высота снежного покрова, см. При наведении курсора мыши на число - состояние снежного покрова и степень покрытия местности в баллах.